When you browse on this site, cookies collect data to enhance your experience and personalize the content and advertising you see.
Visit our Privacy Policy to learn more. By continuing to use the site, you agree to this use of cookies and data.
  • In Österreich
  • Länderverzeichnis
  • Für 7 Tage
  • Wassertemperatur
  • Satellitenkarten
  • Wetterkarte
  • News
  • Widgets
  • user-avatar
    Anmelden

    Stündliche Wetter Igls

    Heute, 17 Juli, Mittwoch

    Zeit Temperatur Niederschläge Wind Luftdruck Luftfeuchtigkeit
    00:00 +13°C° 0 mm 1 m/S 684 mmHg 95%
    01:00 +13°C° 0 mm 1 m/S 684 mmHg 96%
    02:00 +13°C° 0 mm 1 m/S 684 mmHg 96%
    03:00 +13°C° 0 mm 1 m/S 684 mmHg 96%
    04:00 +13°C° 0 mm 1 m/S 684 mmHg 96%
    05:00 +14°C° 0 mm 1 m/S 684 mmHg 92%
    06:00 +15°C° 0 mm 0 m/S 684 mmHg 87%
    07:00 +17°C° 0 mm 0 m/S 685 mmHg 82%
    08:00 +19°C° 0 mm 0 m/S 685 mmHg 72%
    09:00 +23°C° 0 mm 1 m/S 685 mmHg 61%
    10:00 +25°C° 0 mm 1 m/S 685 mmHg 50%
    11:00 +26°C° 0.3 mm 1 m/S 685 mmHg 48%
    12:00 +26°C° 0.3 mm 1 m/S 685 mmHg 47%
    13:00 +27°C° 0.3 mm 1 m/S 684 mmHg 45%
    14:00 +26°C° 1 mm 2 m/S 684 mmHg 51%
    15:00 +25°C° 1 mm 2 m/S 684 mmHg 58%
    16:00 +24°C° 1 mm 2 m/S 684 mmHg 65%
    17:00 +21°C° 0.9 mm 2 m/S 684 mmHg 73%
    18:00 +21°C° 0.9 mm 1 m/S 683 mmHg 81%
    19:00 +20°C° 0.9 mm 1 m/S 683 mmHg 89%
    20:00 +18°C° 0.1 mm 1 m/S 683 mmHg 91%
    21:00 +16°C° 0.1 mm 1 m/S 683 mmHg 93%
    22:00 +14°C° 0.1 mm 1 m/S 683 mmHg 94%
    23:00 +14°C° 0 mm 1 m/S 683 mmHg 94%

    Morgen, 18 Juli, Donnerstag

    Zeit Temperatur Niederschläge Wind Luftdruck Luftfeuchtigkeit
    00:00 +13°C° 0 mm 1 m/S 683 mmHg 95%
    01:00 +13°C° 0 mm 1 m/S 682 mmHg 95%
    02:00 +13°C° 0 mm 1 m/S 682 mmHg 95%
    03:00 +13°C° 0 mm 1 m/S 682 mmHg 94%
    04:00 +12°C° 0 mm 1 m/S 682 mmHg 94%
    05:00 +14°C° 0 mm 1 m/S 682 mmHg 91%
    06:00 +15°C° 0 mm 0 m/S 683 mmHg 88%
    07:00 +16°C° 0 mm 0 m/S 683 mmHg 85%
    08:00 +20°C° 0 mm 1 m/S 683 mmHg 74%
    09:00 +22°C° 0 mm 1 m/S 684 mmHg 64%
    10:00 +24°C° 0 mm 1 m/S 684 mmHg 53%
    11:00 +24°C° 0.1 mm 1 m/S 684 mmHg 51%
    12:00 +24°C° 0.1 mm 2 m/S 684 mmHg 50%
    13:00 +25°C° 0.1 mm 2 m/S 684 mmHg 48%
    14:00 +24°C° 0.7 mm 2 m/S 684 mmHg 56%
    15:00 +23°C° 0.7 mm 2 m/S 684 mmHg 63%
    16:00 +22°C° 0.7 mm 1 m/S 684 mmHg 71%
    17:00 +21°C° 0.9 mm 1 m/S 684 mmHg 76%
    18:00 +20°C° 0.9 mm 1 m/S 684 mmHg 82%
    19:00 +17°C° 0.9 mm 0 m/S 684 mmHg 87%
    20:00 +18°C° 0.1 mm 1 m/S 684 mmHg 89%
    21:00 +15°C° 0.1 mm 1 m/S 684 mmHg 90%
    22:00 +14°C° 0.1 mm 1 m/S 684 mmHg 92%
    23:00 +14°C° 0 mm 1 m/S 684 mmHg 92%

    übermorgen, 19 Juli, Freitag

    Zeit Temperatur Niederschläge Wind Luftdruck Luftfeuchtigkeit
    00:00 +13°C° 0 mm 1 m/S 684 mmHg 92%
    01:00 +13°C° 0 mm 1 m/S 684 mmHg 92%
    02:00 +13°C° 0 mm 1 m/S 684 mmHg 91%
    03:00 +13°C° 0 mm 1 m/S 684 mmHg 91%
    04:00 +13°C° 0 mm 1 m/S 684 mmHg 90%
    05:00 +13°C° 0 mm 0 m/S 685 mmHg 88%
    06:00 +15°C° 0 mm 0 m/S 685 mmHg 86%
    07:00 +16°C° 0 mm 0 m/S 685 mmHg 84%
    08:00 +18°C° 0 mm 0 m/S 686 mmHg 73%
    09:00 +21°C° 0 mm 0 m/S 686 mmHg 63%
    10:00 +25°C° 0 mm 1 m/S 687 mmHg 53%
    11:00 +26°C° 0.1 mm 1 m/S 687 mmHg 50%
    12:00 +27°C° 0.1 mm 1 m/S 687 mmHg 48%
    13:00 +27°C° 0.1 mm 1 m/S 686 mmHg 46%
    14:00 +26°C° 0.5 mm 1 m/S 686 mmHg 53%
    15:00 +25°C° 0.5 mm 1 m/S 686 mmHg 60%
    16:00 +24°C° 0.5 mm 2 m/S 686 mmHg 67%
    17:00 +23°C° 0.7 mm 1 m/S 686 mmHg 76%
    18:00 +22°C° 0.7 mm 1 m/S 686 mmHg 84%
    19:00 +20°C° 0.7 mm 1 m/S 686 mmHg 92%
    20:00 +19°C° 0.1 mm 1 m/S 686 mmHg 93%
    21:00 +16°C° 0.1 mm 0 m/S 686 mmHg 94%
    22:00 +14°C° 0.1 mm 0 m/S 686 mmHg 95%
    23:00 +15°C° 0 mm 1 m/S 686 mmHg 95%

    20 Juli, Samstag

    Zeit Temperatur Niederschläge Wind Luftdruck Luftfeuchtigkeit
    00:00 +15°C° 0 mm 1 m/S 686 mmHg 95%
    01:00 +15°C° 0 mm 1 m/S 686 mmHg 94%
    02:00 +15°C° 0 mm 1 m/S 685 mmHg 94%
    03:00 +14°C° 0 mm 1 m/S 685 mmHg 93%
    04:00 +14°C° 0 mm 1 m/S 685 mmHg 93%
    05:00 +16°C° 0 mm 1 m/S 686 mmHg 91%
    06:00 +18°C° 0 mm 1 m/S 686 mmHg 89%
    07:00 +20°C° 0 mm 1 m/S 686 mmHg 87%
    08:00 +22°C° 0 mm 1 m/S 687 mmHg 77%
    09:00 +25°C° 0 mm 1 m/S 687 mmHg 67%
    10:00 +27°C° 0 mm 1 m/S 688 mmHg 57%
    11:00 +27°C° 0.5 mm 1 m/S 687 mmHg 58%
    12:00 +27°C° 0.5 mm 1 m/S 687 mmHg 60%
    13:00 +27°C° 0.5 mm 1 m/S 687 mmHg 62%
    14:00 +26°C° 1.3 mm 1 m/S 687 mmHg 67%
    15:00 +25°C° 1.3 mm 1 m/S 687 mmHg 73%
    16:00 +24°C° 1.3 mm 1 m/S 687 mmHg 78%
    17:00 +23°C° 1.9 mm 1 m/S 687 mmHg 84%
    18:00 +21°C° 1.9 mm 1 m/S 687 mmHg 90%
    19:00 +20°C° 1.9 mm 1 m/S 687 mmHg 95%
    20:00 +19°C° 2 mm 1 m/S 687 mmHg 96%
    21:00 +18°C° 2 mm 1 m/S 687 mmHg 96%
    22:00 +16°C° 2 mm 1 m/S 688 mmHg 96%
    23:00 +16°C° 0 mm 1 m/S 688 mmHg 94%

    21 Juli, Sonntag

    Zeit Temperatur Niederschläge Wind Luftdruck Luftfeuchtigkeit
    00:00 +15°C° 0 mm 1 m/S 688 mmHg 93%
    01:00 +15°C° 0 mm 1 m/S 688 mmHg 91%
    02:00 +15°C° 0 mm 1 m/S 687 mmHg 90%
    03:00 +15°C° 0 mm 1 m/S 687 mmHg 88%
    04:00 +15°C° 0 mm 1 m/S 687 mmHg 87%
    05:00 +16°C° 0 mm 1 m/S 688 mmHg 85%
    06:00 +16°C° 0 mm 0 m/S 688 mmHg 82%
    07:00 +18°C° 0 mm 0 m/S 688 mmHg 79%
    08:00 +20°C° 0 mm 0 m/S 689 mmHg 71%
    09:00 +24°C° 0 mm 1 m/S 689 mmHg 63%
    10:00 +26°C° 0 mm 1 m/S 690 mmHg 55%
    11:00 +26°C° 0.2 mm 1 m/S 690 mmHg 54%
    12:00 +27°C° 0.2 mm 1 m/S 690 mmHg 52%
    13:00 +28°C° 0.2 mm 1 m/S 690 mmHg 50%
    14:00 +27°C° 0.5 mm 1 m/S 690 mmHg 56%
    15:00 +26°C° 0.5 mm 2 m/S 690 mmHg 63%
    16:00 +25°C° 0.5 mm 2 m/S 690 mmHg 70%
    17:00 +24°C° 0.6 mm 1 m/S 690 mmHg 77%
    18:00 +23°C° 0.6 mm 1 m/S 690 mmHg 85%
    19:00 +22°C° 0.6 mm 1 m/S 690 mmHg 92%
    20:00 +21°C° 0.2 mm 1 m/S 690 mmHg 93%
    21:00 +19°C° 0.2 mm 1 m/S 690 mmHg 94%
    22:00 +16°C° 0.2 mm 0 m/S 690 mmHg 95%
    23:00 +16°C° 0 mm 0 m/S 690 mmHg 95%

    22 Juli, Montag

    Zeit Temperatur Niederschläge Wind Luftdruck Luftfeuchtigkeit
    00:00 +16°C° 0 mm 1 m/S 689 mmHg 95%
    01:00 +16°C° 0 mm 1 m/S 689 mmHg 95%
    02:00 +16°C° 0 mm 1 m/S 689 mmHg 94%
    03:00 +15°C° 0 mm 1 m/S 689 mmHg 94%
    04:00 +15°C° 0 mm 1 m/S 689 mmHg 94%
    05:00 +18°C° 0 mm 1 m/S 689 mmHg 91%
    06:00 +17°C° 0 mm 0 m/S 689 mmHg 89%
    07:00 +18°C° 0 mm 0 m/S 690 mmHg 86%
    08:00 +21°C° 0.1 mm 0 m/S 690 mmHg 78%
    09:00 +25°C° 0.1 mm 1 m/S 690 mmHg 69%
    10:00 +27°C° 0.1 mm 1 m/S 690 mmHg 61%
    11:00 +28°C° 0.2 mm 1 m/S 690 mmHg 56%
    12:00 +29°C° 0.2 mm 1 m/S 690 mmHg 51%
    13:00 +29°C° 0.2 mm 2 m/S 690 mmHg 46%
    14:00 +29°C° 0.1 mm 2 m/S 690 mmHg 49%
    15:00 +28°C° 0.1 mm 2 m/S 689 mmHg 51%
    16:00 +28°C° 0.1 mm 2 m/S 689 mmHg 54%
    17:00 +26°C° 0.2 mm 2 m/S 689 mmHg 64%
    18:00 +25°C° 0.2 mm 1 m/S 689 mmHg 75%
    19:00 +23°C° 0.2 mm 1 m/S 688 mmHg 86%
    20:00 +22°C° 0 mm 1 m/S 688 mmHg 88%
    21:00 +20°C° 0 mm 1 m/S 688 mmHg 91%
    22:00 +18°C° 0 mm 1 m/S 688 mmHg 93%
    23:00 +18°C° 0 mm 1 m/S 688 mmHg 93%
    Mehr zeigen